Regional Weather Roundup
Issued by NWS

Home | Current Version | Previous Version | Text Only | Print | Product List | Glossary On
Versions: 1 2 3 4 5 6 7 8 9 10 11 12 13 14 15 16 17 18 19 20 21 22 23 24 25 26 27 28 29 30 31 32 33 34 35 36 37 38 39 40 41 42 43 44 45 46 47 48 49 50
000
ASHW40 PHFO 241543
RWRHI

WEATHER ROUNDUP FOR HAWAII
NATIONAL WEATHER SERVICE HONOLULU HI
500 AM HST SAT JUN 24 2017

THIS IS AN AUTOMATED REPORT THAT HAS NOT BEEN QUALITY CONTROLLED.

NOTE..."FAIR" INDICATES FEW OR NO CLOUDS BELOW 12,000 FEET WITH NO
SIGNIFICANT WEATHER AND/OR OBSTRUCTIONS TO VISIBILITY.

* - THESE SITES REPORT LIMITED FIELDS

HIZ001>004-241600-
KAUAI-NIIHAU-

CITY           SKY/WX    TMP DP  RH WIND       PRES   REMARKS
LIHUE APT      PTCLDY    77  69  76 E8        29.99S
PORT ALLEN*    NOT AVBL
POIPU*           N/A     72 N/A N/A NE3         N/A
PRINCEVILLE*     N/A     70 N/A N/A S2          N/A
KOKOLE POINT*  NOT AVBL
MOLOAA DAIRY*    N/A     72  70  94 SE1G8       N/A
WAIMEA HTS*      N/A    N/A N/A N/A N1          N/A
PUU OPAE*      NOT AVBL
PUU LUA*       NOT AVBL
MAKAHA RIDGE*    N/A     68  61  77 CALM        N/A
$$

HIZ005>011-241600-
OAHU-

CITY           SKY/WX    TMP DP  RH WIND       PRES   REMARKS
HONOLULU       PTCLDY    74  66  76 N3        29.96F
KALAELOA       CLEAR     72  65  78 NE3       29.98S
KANEOHE MCB    LGT RAIN  78  70  76 E5        29.95
WHEELER FIELD  FAIR      68  66  93 NW5       29.97S
BELLOWS*         N/A    N/A N/A N/A NE12        N/A
KAHUKU*          N/A    N/A N/A N/A NE6         N/A
WHEELER*         N/A    N/A N/A N/A N3          N/A
WAIANAE HARBOR   N/A    N/A N/A N/A NE2         N/A
DILLINGHAM*      N/A     88  86  94 W2          N/A  HX 116
KAHUKU TRN*      N/A     84  81  89 W3G12       N/A  HX  98
KAWAILOA*        N/A     70  66  88 E5G10       N/A
KII*             N/A     77  70  78 E12         N/A
MAKUA RANGE*     N/A     72  64  78 NW3         N/A
OAHU FOREST NW   N/A     70  64  83 NE13G24     N/A
SCHOFIELD BRK*   N/A     72  70  94 MISG        N/A
SCHOFIELD S*   NOT AVBL
WAIANAE VLY*     N/A     70  64  83 NW2G10      N/A
KUAOKALA*        N/A     72  64  78 E6          N/A
HONOULIUULI*   NOT AVBL
MOKUOLOE IS*   NOT AVBL
PALEHUA*         N/A     64  63  94 NE10        N/A
WAIAWA PHB*    NOT AVBL
$$

HIZ012>013-241600-
MOLOKAI-

CITY           SKY/WX    TMP DP  RH WIND       PRES   REMARKS
MOLOKAI AIRPT  CLEAR     72  66  81 NE6       29.98R
KALAUPAPA      NOT AVBL
MAKAPULAPAI*     N/A     75  68  78 E12G18      N/A
MOLOKAI 1*       N/A     63  59  88 CALM        N/A
PUU ALII*        N/A     58  57  98 NE1         N/A
$$

HIZ016-241600-
KAHOOLAWE-

CITY           SKY/WX    TMP DP  RH WIND       PRES   REMARKS
KAHOOLAWE*     NOT AVBL
HAKIOAWA*        N/A     71  67  87 MISG        N/A
HONOKANAIA*      N/A     76  68  76 NE10      29.91S
KANELOA*         N/A     72  68  88 NE13G23   30.03F
KEALIALALO*    NOT AVBL
LUA MAKIKA*    NOT AVBL
$$

HIZ014>015-241600-
LANAI-

CITY           SKY/WX    TMP DP  RH WIND       PRES   REMARKS
LANAI CITY     FAIR      68  65  90 E5        30.02S
LANAI 1*       NOT AVBL
$$

HIZ017>028-241600-
MAUI-

CITY           SKY/WX    TMP DP  RH WIND       PRES   REMARKS
KAHULUI        CLEAR     67  63  87 SE6       29.96S
KAPALUA-W MAUI NOT AVBL
HANA AIRPORT   CLOUDY    72  68  88 E3        30.01R
HANA*            N/A     72 N/A N/A S3          N/A
HALEAKALA SUMM   N/A     48  -4  11 NW3G16      N/A
MAALAEA BAY*     N/A     70 N/A N/A E10         N/A
HALEAKALA*     NOT AVBL
KAUPO GAP*     NOT AVBL
KULA 1*          N/A     46  45  93 E5          N/A
$$

HIZ023>026-241600-
BIG ISLAND OF HAWAII COAST AND LOWER SLOPES-

CITY           SKY/WX    TMP DP  RH WIND       PRES   REMARKS
KAILUA KONA    CLOUDY    75  69  81 SE3       29.94S
HILO           CLOUDY    72  68  87 SW5       29.98S
HONOKAA*         N/A     66 N/A N/A VRB1        N/A
KAWAIHAE MWT*    N/A     77 N/A N/A N2          N/A
KAWAIHAE*        N/A     77 N/A N/A N3        29.95S
SOUTH POINT*     N/A     70 N/A N/A N12         N/A
UPOLU AIRPORT* NOT AVBL
KAMUELA*       SUNNY     63  59  88 NE8       30.07R
HAKALAU*         N/A     48  48 100 W3          N/A
KALOKO-HONOKO*   N/A     72  70  94 NE3       29.94S
PALI 2*          N/A     64  61  88 S6          N/A
KEALAKOMO*       N/A     75  63  64 N7          N/A
KAUPULEHU*       N/A     72  63  73 E7          N/A
KAPAPALA*        N/A     65  65 100 VRB3        N/A
LOWER KAHUKU*    N/A     61  59  94 VRB2G10     N/A
PUHE CS*         N/A     77  68  73 NE2         N/A
PUHO CS*         N/A     74  67  79 NE2         N/A
PTA KEAMUKU*   NOT AVBL
WAIKOLOA*        N/A    N/A N/A N/A E8G14       N/A
$$

HIZ027>028-241600-
BIG ISLAND OF HAWAII INTERIOR AND SUMMMITS-

CITY           SKY/WX    TMP DP  RH WIND       PRES   REMARKS
BRADSHAW FIELD CLOUDY    48  48 100 CALM      30.28S
MK VISITOR CEN   N/A     45  10  24 N3          N/A
MAUNA KEA*       N/A     41  -6  13 CALM        N/A
MAUNA LOA*       N/A     45  -2  14 MISG        N/A
MAUNA LOA 1*   NOT AVBL
PTA KIPUKA*      N/A     55  55 100 E2          N/A
PTA RANGE 17*    N/A     66  64  94 E3          N/A
PTA WEST*        N/A     59  57  94 S5          N/A
NENE CABIN*      N/A     46  46 100 N3          N/A
AHUMOA*          N/A     48  46  93 NE5         N/A
PTA PORTABLE*  NOT AVBL
PUU MALI*        N/A     52  48  87 S10         N/A
$$

HIC003-241600-
NORTHWEST ISLANDS-

CITY           SKY/WX    TMP DP  RH WIND       PRES   REMARKS
MIDWAY ISLAND  MOCLDY    73  68  83 E18       30.12S
MIDWAY NOS*      N/A     75 N/A N/A MISG      30.11S
FRENCH FRIGATE NOT AVBL
$$

PHZ110>124-180-241600-
BUOY REPORTS

STATION/POSITION TIME  TEMP    WIND        PRES    WAVE   SWELL
                       AIR SEA DIR/SP/G            HT/PER HT/DIR
                 (UTC) (F)     (DEG/KT/KT) (MB)    (FT/S) (FT/D)
BUOY 51001       1520   78 80   70/ 12/ 14 1016.4
BUOY 51101       1450   78 80   80/ 12/ 16 1016.6F   6/14   5/150
BUOY 51100       NOT AVBL
BUOY 51002       1520   78 79   90/ 12/ 14 1013.4
BUOY 51003       1450   79 80   70/  6/  8 1013.7R   5/14   5/120
BUOY 51004       1450      79   80/  8/ 12 1014.0S   6/14   5/150
BARBERS PT BUOY  NOT AVBL
WAIMEA BAY BUOY  1502      78                N/A     4/ 9   2/350
KAILUA BAY BUOY  1504      80                N/A     5/ 8   2/140
LANAI BUOY       NOT AVBL
BARBERS PT 2     NOT AVBL
PAUWELA MAUI     1509      79                N/A     4/ 8   2/ 30
HILO             1527      78                N/A     5/13   3/120
KANEOHE BAY BUOY 1525      80                N/A     5/10   2/ 20
HANALEI KAUAI    1522      80                N/A     4/ 8   2/ 90
KAHULUI HARBOR   1506   76 80   20/ 11/ 13 1014.7
HONOLULU HARBOR  1506   77 80   90/  1/  2 1015.6
KILO NALU        NOT AVBL
HILO HARBOR      1506   73 79  220/  4/  5 1014.9
MOKUOLOE         1436   77 81   70/  5/  6 1015.0S
NAWILIWILI       1518   72     240/  5/  6 1015.2
WHOTS BUOY       NOT AVBL
BUOY 51028       NOT AVBL
$$

......................KEY........................................
  SKY/WX - SKY CONDITIONS/PRESENT WEATHER
  TMP    - TEMPERATURE IN FAHRENHEIT
  DWPT   - DEWPOINT IN FAHRENHEIT
  RH     - RELATIVE HUMIDITY IN PERCENT
  WIND   - DIRECTION AND SPEED /MPH FOR ISLANDS...KTS FOR BUOYS/
  PRES   - MEAN SEA LEVEL PRESSURE IN INCHES OF HG
  VSB    - VISIBILITY IN MILES
  HX     - HEAT INDEX
  WCI    - WIND CHILL INDEX
  VRB    - VARIABLE WIND DIRECTION
  N/A    - NOT AVAILABLE




USA.gov is the U.S. government's official web portal to all federal, state and local government web resources and services.